User: anonymous   Login
Location: Brivio
(45.7333°N, 9.4500°E)
Time: 00:39:06
(UTC+00:00)
Language:

Envisat - Orbit

View from above orbital plane
View from above orbital plane
View from above satellite
View from above satellite

Ground track
Ground track

The orbit data is extracted from the following two-line orbital elements,

1 27386U 02009A   19349.84239993  .00000000  00000-0  13519-4 0  9993
2 27386  98.1409   1.5713 0001327  89.4253  84.2738 14.37965903932081
Epoch (UTC): 15 December 2019 20:13:03
Eccentricity: 0.0001327
inclination: 98.1409°
perigee height: 764 km
apogee height: 766 km
right ascension of ascending node: 1.5713°
argument of perigee: 89.4253°
revolutions per day: 14.37965903
mean anomaly at epoch: 84.2738°
orbit number at epoch: 93208

The dashed part of the orbit path shows where the satellite is in the earth's shadow,  

DLR